Clarksville, TN

4:36 PM CDT on April 20, 2018 (GMT -0500)
Outlaw

Weather History for KCKV - December, 2012

Change the Weather History Date:

Monday, December 10, 2012

  Actual Average Record
Temperature  
Mean Temperature 46 °F 40 °F  
Max Temperature 59 °F 49 °F 70 °F (1971)
Min Temperature 32 °F 30 °F 8 °F (1977)
Degree Days  
Heating Degree Days 19    
Month to date heating degree days 85  
Since 1 July heating degree days 941  
Cooling Degree Days 0    
Month to date cooling degree days 3  
Year to date cooling degree days  
Moisture  
Dew Point 40 °F    
Average Humidity 84    
Maximum Humidity 93    
Minimum Humidity 75    
Precipitation  
Precipitation 0.14 in 0.19 in 1.80 in (1982)
Month to date precipitation 2.85 1.87  
Year to date precipitation 47.02  
Sea Level Pressure  
Sea Level Pressure 29.85 in    
Wind  
Wind Speed 12 mph (NNW)    
Max Wind Speed 22 mph    
Max Gust Speed 25 mph    
Visibility 8 miles    
Events Rain    
T = Trace of Precipitation, MM = Missing Value Source: NWS Daily Summary

Daily Weather History Graph

Daily Weather History Graph

Search for Another Location

Airport or City:

Astronomy

Dec. 10, 2012 Rise Set
Actual Time 6:51 AM CST 4:34 PM CST
Civil Twilight 6:22 AM CST 5:02 PM CST
Nautical Twilight 5:50 AM CST 5:35 PM CST
Astronomical Twilight 5:18 AM CST 6:06 PM CST
Moon 3:37 AM CST (12/10) 2:20 PM CST (12/10)
Length of Visible Light 10h 40m
Length of Day
9h 42m
Waning Crescent, 10% of the Moon is Illuminated
Dec 10
Waning Crescent
Dec 13
New
Dec 19
First Quarter
Dec 28
Full
Jan 4
Last Quarter

Hourly Weather History & Observations

Time (CST) Temp. Windchill Dew Point Humidity Pressure Visibility Wind Dir Wind Speed Gust Speed Precip Events Conditions
12:14 AM 59.0 °F - 57.2 °F 94% 29.78 in 7.0 mi WSW 5.8 mph - 0.04 in Rain Light Rain
12:21 AM 59.0 °F - 57.2 °F 94% 29.78 in 6.0 mi West 8.1 mph - 0.05 in Rain Light Rain
12:40 AM 57.2 °F - 57.2 °F 100% 29.75 in 5.0 mi WNW 3.5 mph - 0.09 in Rain Light Rain
12:43 AM 57.2 °F - 57.2 °F 100% 29.74 in 5.0 mi Calm Calm - 0.09 in Rain Rain
12:52 AM 55.9 °F - 54.0 °F 93% 29.73 in 8.0 mi North 12.7 mph - 0.10 in Rain Light Rain
1:08 AM 55.4 °F - 53.6 °F 94% 29.74 in 10.0 mi North 12.7 mph 21.9 mph 0.00 in   Overcast
1:52 AM 53.1 °F - 50.0 °F 89% 29.75 in 10.0 mi NNW 13.8 mph - 0.00 in   Overcast
2:52 AM 50.0 °F - 48.0 °F 93% 29.76 in 2.0 mi North 16.1 mph - 0.00 in Rain Light Rain
3:09 AM 48.2 °F - 46.4 °F 93% 29.79 in 3.0 mi NNW 16.1 mph - 0.00 in Rain Light Rain
3:44 AM 48.2 °F - 46.4 °F 93% 29.79 in 5.0 mi North 12.7 mph - 0.03 in   Overcast
3:47 AM 48.2 °F - 46.4 °F 93% 29.78 in 4.0 mi NNW 13.8 mph - 0.03 in   Overcast
3:52 AM 48.0 °F - 46.0 °F 93% 29.77 in 3.0 mi NNW 11.5 mph - 0.03 in   Overcast
4:52 AM 46.0 °F 39.9 °F 44.1 °F 93% 29.79 in 8.0 mi North 13.8 mph - 0.00 in Rain Light Rain
5:41 AM 44.6 °F 39.7 °F 44.6 °F 100% 29.79 in 5.0 mi North 9.2 mph - 0.01 in Rain Light Rain
5:52 AM 45.0 °F 38.5 °F 43.0 °F 93% 29.79 in 6.0 mi North 13.8 mph - 0.02 in Rain Light Rain
5:55 AM 44.6 °F 38.8 °F 42.8 °F 93% 29.78 in 7.0 mi North 11.5 mph - 0.00 in   Overcast
6:25 AM 44.6 °F 39.2 °F 42.8 °F 93% 29.79 in 5.0 mi NNW 10.4 mph - 0.00 in   Overcast
6:52 AM 44.1 °F 37.4 °F 39.9 °F 85% 29.81 in 7.0 mi NNW 13.8 mph - 0.00 in   Overcast
7:12 AM 44.6 °F 40.7 °F 39.2 °F 81% 29.80 in 8.0 mi North 6.9 mph - 0.00 in Rain Light Rain
8:52 AM 44.1 °F 39.0 °F 39.0 °F 82% 29.83 in 10.0 mi NNW 9.2 mph - 0.00 in   Overcast
9:12 AM 44.6 °F 39.7 °F 39.2 °F 81% 29.83 in 9.0 mi NNW 9.2 mph - 0.01 in Rain Light Rain
9:52 AM 44.1 °F 38.6 °F 39.0 °F 82% 29.83 in 10.0 mi NNW 10.4 mph - 0.01 in   Overcast
10:04 AM 44.6 °F 39.7 °F 39.2 °F 81% 29.83 in 10.0 mi NNW 9.2 mph - N/A   Overcast
10:52 AM 41.0 °F 33.1 °F 37.0 °F 86% 29.85 in 6.0 mi NW 15.0 mph 24.2 mph 0.00 in Rain Light Rain
11:02 AM 41.0 °F 32.2 °F 37.4 °F 87% 29.85 in 7.0 mi NW 18.4 mph 24.2 mph 0.00 in   Overcast
11:52 AM 39.0 °F 31.0 °F 35.1 °F 86% 29.83 in 6.0 mi NW 13.8 mph - 0.00 in   Overcast
12:52 PM 37.9 °F 29.2 °F 33.1 °F 83% 29.85 in 8.0 mi NW 15.0 mph 21.9 mph N/A   Overcast
1:52 PM 36.0 °F 26.7 °F 30.9 °F 82% 29.86 in 9.0 mi NNW 15.0 mph - 0.00 in   Overcast
2:45 PM 35.6 °F 27.5 °F 30.2 °F 81% 29.86 in 8.0 mi NW 11.5 mph - N/A   Overcast
3:52 PM 35.1 °F 27.9 °F 30.0 °F 82% 29.88 in 10.0 mi NW 9.2 mph - N/A   Overcast
4:52 PM 34.0 °F 24.6 °F 28.9 °F 82% 29.92 in 10.0 mi NW 13.8 mph - N/A   Overcast
5:52 PM 34.0 °F 24.2 °F 28.0 °F 79% 29.97 in 10.0 mi NW 15.0 mph - N/A   Overcast
6:52 PM 33.1 °F 23.9 °F 27.0 °F 78% 29.99 in 10.0 mi NNW 12.7 mph - N/A   Overcast
7:52 PM 33.1 °F 25.5 °F 27.0 °F 78% 30.01 in 10.0 mi NNW 9.2 mph - N/A   Overcast
8:52 PM 33.1 °F 24.9 °F 26.1 °F 75% 30.03 in 10.0 mi NW 10.4 mph - N/A   Overcast
9:52 PM 33.1 °F 25.5 °F 26.1 °F 75% 30.04 in 10.0 mi NNW 9.2 mph - N/A   Overcast
10:16 PM 32.0 °F 23.0 °F 26.6 °F 80% 30.03 in 10.0 mi NNW 11.5 mph - N/A   Overcast
10:52 PM 32.0 °F 23.6 °F 26.1 °F 79% 30.05 in 10.0 mi North 10.4 mph - N/A   Overcast
11:52 PM 32.0 °F 25.6 °F 26.1 °F 79% 30.06 in 10.0 mi NNW 6.9 mph - N/A   Overcast